Amateur Radio Satellites - All Passes

Search period start: 22 May 2013 20:33
Search period end: 23 May 2013 20:33
Location: Voyageurs National Park, 48.5020°N, 92.9292°W

Satellite Date Start Highest point End Downlink Frequencies (MHz)
Time Altitude Azimuth
RS-15 22 May 21:00:08 21:10:41 37° 347° (NNW) 21:20:50 29.354 - 29.394 USB, Beacon 29.352 USB
STRAND 1 22 May 21:07:20 21:11:31 26° 299° (WNW) 21:15:41 ?
JAS-1B 22 May 21:20:12 21:28:15 35° 266° (W) 21:35:19 435.800 - 435.900 CW/SSB
Oscar 11 22 May 21:44:15 21:48:28 54° 71° (ENE) 21:52:43 145.825 FM, Beacon 2401.500 USB
OPAL 22 May 21:55:05 22:00:02 48° 66° (ENE) 22:04:59 ?
HO-68 22 May 21:59:51 22:06:56 68° 256° (WSW) 22:14:05 435.675 MHz FM
UOSAT-12 22 May 22:11:43 22:13:42 13° 251° (WSW) 22:15:41 437.025 FM, 437.400 FM
JAS-2 22 May 22:15:41 22:23:29 77° 257° (WSW) 22:31:20 435.800 - 435.900 CW/SSB, 435.910 FM
KITSAT 1 22 May 23:01:21 23:08:38 40° 111° (ESE) 23:15:59 435.175 FM
RS-15 22 May 23:16:07 23:26:44 41° 21° (NNE) 23:36:56 29.354 - 29.394 USB, Beacon 29.352 USB
Oscar 11 22 May 23:22:06 23:25:02 18° 269° (W) 23:28:00 145.825 FM, Beacon 2401.500 USB
OPAL 22 May 23:34:45 23:39:08 27° 264° (W) 23:43:32 ?
HO-68 22 May 23:52:48 23:56:00 13° 276° (W) 23:59:13 435.675 MHz FM
JAS-2 23 May 00:04:35 00:09:39 18° 277° (W) 00:14:46 435.800 - 435.900 CW/SSB, 435.910 FM
KITSAT 1 23 May 00:55:44 01:03:44 62° 313° (NW) 01:11:48 435.175 FM
MaSat-1 23 May 00:55:55 00:59:34 15° 103° (ESE) 01:02:54 437.345 MHz
RS-15 23 May 01:29:28 01:40:47 86° 51° (NE) 01:51:42 29.354 - 29.394 USB, Beacon 29.352 USB
Oscar 16 23 May 02:01:29 02:05:27 22° 91° (E) 02:09:23 437.025 USB, Beacon 2401.1428
AO-27 23 May 02:11:00 02:14:46 20° 90° (E) 02:18:31 436.795 MHz FM
ITAMSAT 1 23 May 02:17:27 02:21:27 22° 91° (E) 02:25:26 435.822 SSB
MaSat-1 23 May 02:34:19 02:41:12 74° 117° (ESE) 02:46:44 437.345 MHz
KITSAT 1 23 May 02:54:11 03:00:53 27° 340° (NNW) 03:07:36 435.175 FM
Uribyol 2 23 May 02:57:47 03:02:52 49° 99° (E) 03:07:56 436.500 FM
Oscar 19 23 May 03:00:37 03:05:45 59° 101° (E) 03:10:49 437.125 CW, 437.150 USB
AO-Echo 23 May 03:03:32 03:06:56 19° 91° (E) 03:10:22 ?
Oscar 16 23 May 03:40:07 03:45:13 59° 290° (WNW) 03:50:17 437.025 USB, Beacon 2401.1428
RS-15 23 May 03:42:49 03:51:49 31° 256° (WSW) 04:00:41 29.354 - 29.394 USB, Beacon 29.352 USB
AO-27 23 May 03:49:35 03:54:46 66° 289° (WNW) 03:59:57 436.795 MHz FM
ISS 23 May 03:54:25 03:57:37 46° 149° (SSE) 04:00:50 145.800 FM
TMSAT-1 23 May 03:54:36 03:57:45 16° 87° (E) 04:00:54 436.925 FM
ITAMSAT 1 23 May 03:56:13 04:01:21 59° 290° (WNW) 04:06:29 435.822 SSB
AO-7 23 May 04:12:31 04:14:00 11° 80° (E) 04:15:29 29.400 - 29.500 MHz
Gurwin Techsat 1B 23 May 04:15:27 04:20:16 33° 95° (E) 04:25:03 435.225 FM
MaSat-1 23 May 04:18:18 04:23:42 28° 313° (NW) 04:28:12 437.345 MHz
Uosat F 23 May 04:34:19 04:39:17 55° 101° (E) 04:44:12 435.120 FM
Uribyol 2 23 May 04:37:44 04:42:08 28° 298° (WNW) 04:46:32 436.500 FM
Oscar 19 23 May 04:40:41 04:44:44 24° 300° (WNW) 04:48:45 437.125 CW, 437.150 USB
AO-Echo 23 May 04:41:28 04:46:07 58° 289° (WNW) 04:50:50 ?
KITSAT 1 23 May 04:53:03 04:59:19 23° 10° (N) 05:05:35 435.175 FM
STRAND 1 23 May 05:10:25 05:13:55 19° 57° (ENE) 05:17:25 ?
Oscar 16 23 May 05:22:14 05:23:33 11° 310° (NW) 05:24:51 437.025 USB, Beacon 2401.1428
ISS 23 May 05:31:02 05:34:20 56° 348° (NNW) 05:37:39 145.800 FM
AO-27 23 May 05:31:18 05:33:22 12° 308° (NW) 05:35:25 436.795 MHz FM
TMSAT-1 23 May 05:33:02 05:38:23 82° 286° (WNW) 05:43:41 436.925 FM
ITAMSAT 1 23 May 05:38:20 05:39:51 11° 310° (NW) 05:41:21 435.822 SSB
Gurwin Techsat 1B 23 May 05:55:23 06:00:19 40° 294° (WNW) 06:05:14 435.225 FM
AO-7 23 May 06:00:38 06:08:49 54° 102° (ESE) 06:16:57 29.400 - 29.500 MHz
Saudisat 1A 23 May 06:12:28 06:16:50 46° 121° (ESE) 06:21:15 436.775 MHz
Uosat F 23 May 06:13:48 06:17:46 24° 300° (WNW) 06:21:43 435.120 FM
PCSat 23 May 06:36:43 06:39:07 13° 103° (ESE) 06:41:31 145.825 MHz
STRAND 1 23 May 06:47:29 06:52:34 75° 256° (WSW) 06:57:43 ?
KITSAT 1 23 May 06:49:24 06:57:07 43° 38° (NE) 07:04:47 435.175 FM
Sapphire 23 May 07:07:36 07:11:44 23° 108° (ESE) 07:15:53 437.095 MHz 1200 baud AX-25 AFSK
ISS 23 May 07:08:04 07:11:22 51° 9° (N) 07:14:40 145.800 FM
TMSAT-1 23 May 07:14:32 07:17:32 15° 306° (NW) 07:20:31 436.925 FM
Hamsat 23 May 07:29:43 07:33:13 23° 93° (E) 07:36:43 145.90 MHz
Oscar 10/S400 23 May 07:34:36 10:35:39 41° 249° (WSW) 17:24:28 145.825 - 145.975 CW/USB, Beacon 145.810 USB
Saudisat 1A 23 May 07:52:31 07:56:42 33° 321° (NW) 08:00:55 436.775 MHz
AO-7 23 May 07:53:44 08:01:29 44° 303° (WNW) 08:09:14 29.400 - 29.500 MHz
SO-67 23 May 07:55:37 07:57:18 13° 89° (E) 07:58:59 435.3500 MHz FM
PCSat 23 May 08:16:14 08:21:38 77° 122° (ESE) 08:27:05 145.825 MHz
STRAND 1 23 May 08:31:35 08:32:41 11° 275° (W) 08:33:47 ?
ISS 23 May 08:44:50 08:48:09 59° 208° (SSW) 08:51:29 145.800 FM
KITSAT 1 23 May 08:44:57 08:52:58 65° 241° (WSW) 09:00:58 435.175 FM
Sapphire 23 May 08:49:19 08:54:42 67° 308° (NW) 09:00:08 437.095 MHz 1200 baud AX-25 AFSK
JAS-1B 23 May 09:01:10 09:07:21 64° 102° (ESE) 09:12:58 435.800 - 435.900 CW/SSB
Hamsat 23 May 09:05:21 09:09:27 41° 290° (WNW) 09:13:34 145.90 MHz
HO-68 23 May 09:24:24 09:29:23 20° 88° (E) 09:34:19 435.675 MHz FM
JAS-2 23 May 09:24:29 09:28:05 15° 80° (E) 09:31:29 435.800 - 435.900 CW/SSB, 435.910 FM
SO-50 23 May 09:26:14 09:30:58 64° 124° (SE) 09:35:38 436.795 FM
SO-67 23 May 09:27:35 09:31:06 52° 287° (WNW) 09:34:35 435.3500 MHz FM
Saudisat 1A 23 May 09:35:35 09:37:46 13° 344° (NNW) 09:39:57 436.775 MHz
MaSat-1 23 May 09:36:37 09:36:47 10° 29° (NNE) 09:36:56 437.345 MHz
AO-7 23 May 09:48:14 09:52:12 14° 327° (NNW) 09:56:10 29.400 - 29.500 MHz
PCSat 23 May 10:01:08 10:05:40 26° 323° (NW) 10:10:12 145.825 MHz
ISS 23 May 10:22:58 10:24:19 12° 226° (SW) 10:25:40 145.800 FM
Sapphire 23 May 10:35:19 10:39:10 19° 330° (NNW) 10:43:03 437.095 MHz 1200 baud AX-25 AFSK
KITSAT 1 23 May 10:42:49 10:46:48 15° 262° (W) 10:50:47 435.175 FM
UOSAT-12 23 May 10:47:59 10:49:22 11° 108° (ESE) 10:50:46 437.025 FM, 437.400 FM
JAS-1B 23 May 10:52:37 10:57:29 24° 305° (NW) 11:02:01 435.800 - 435.900 CW/SSB
Oscar 11 23 May 11:04:29 11:08:51 65° 102° (ESE) 11:13:11 145.825 FM, Beacon 2401.500 USB
JAS-2 23 May 11:07:27 11:14:34 76° 103° (ESE) 11:20:47 435.800 - 435.900 CW/SSB, 435.910 FM
SO-50 23 May 11:07:52 11:11:58 28° 325° (NW) 11:16:01 436.795 FM
HO-68 23 May 11:10:49 11:18:02 89° 108° (ESE) 11:25:13 435.675 MHz FM
MaSat-1 23 May 11:16:20 11:19:58 65° 57° (ENE) 11:22:52 437.345 MHz
Saudisat 1A 23 May 11:17:56 11:19:29 11° 9° (N) 11:21:02 436.775 MHz
OPAL 23 May 11:39:56 11:44:54 57° 103° (ESE) 11:49:47 ?
PCSat 23 May 11:49:13 11:51:06 12° 349° (NNW) 11:52:59 145.825 MHz
Sapphire 23 May 12:23:45 12:24:55 11° 357° (N) 12:26:05 437.095 MHz 1200 baud AX-25 AFSK
UOSAT-12 23 May 12:24:14 12:28:45 78° 127° (SE) 12:33:20 437.025 FM, 437.400 FM
Oscar 11 23 May 12:41:50 12:44:37 17° 300° (WNW) 12:47:24 145.825 FM, Beacon 2401.500 USB
Uribyol 2 23 May 12:42:26 12:45:55 18° 56° (ENE) 12:49:24 436.500 FM
Oscar 19 23 May 12:43:57 12:47:43 21° 58° (ENE) 12:51:30 437.125 CW, 437.150 USB
SO-50 23 May 12:52:14 12:54:08 12° 348° (NNW) 12:56:01 436.795 FM
JAS-2 23 May 12:53:13 12:58:51 26° 306° (NW) 13:03:59 435.800 - 435.900 CW/SSB, 435.910 FM
Saudisat 1A 23 May 12:57:01 13:00:48 25° 33° (NNE) 13:04:32 436.775 MHz
HO-68 23 May 12:59:30 13:04:54 24° 309° (NW) 13:10:19 435.675 MHz FM
OPAL 23 May 13:19:30 13:23:28 24° 303° (WNW) 13:27:22 ?
Oscar 16 23 May 13:21:56 13:26:52 45° 67° (ENE) 13:31:50 437.025 USB, Beacon 2401.1428
AO-27 23 May 13:32:39 13:37:31 43° 67° (ENE) 13:42:24 436.795 MHz FM
PCSat 23 May 13:34:46 13:37:07 13° 16° (NNE) 13:39:27 145.825 MHz
ITAMSAT 1 23 May 13:39:02 13:43:58 47° 68° (ENE) 13:48:56 435.822 SSB
Gurwin Techsat 1B 23 May 14:03:54 14:06:29 14° 53° (NE) 14:09:04 435.225 FM
UOSAT-12 23 May 14:05:46 14:09:26 24° 328° (NNW) 14:13:09 437.025 FM, 437.400 FM
Sapphire 23 May 14:07:38 14:10:50 16° 23° (NNE) 14:14:02 437.095 MHz 1200 baud AX-25 AFSK
Uosat F 23 May 14:14:52 14:18:16 19° 57° (ENE) 14:21:40 435.120 FM
Uribyol 2 23 May 14:19:37 14:24:48 80° 256° (WSW) 14:30:03 436.500 FM
AO-Echo 23 May 14:20:10 14:24:34 37° 67° (ENE) 14:28:55 ?
Oscar 19 23 May 14:21:24 14:26:35 70° 257° (WSW) 14:31:49 437.125 CW, 437.150 USB
SO-50 23 May 14:34:45 14:36:48 13° 14° (NNE) 14:38:50 436.795 FM
Saudisat 1A 23 May 14:36:25 14:40:59 74° 234° (SW) 14:45:27 436.775 MHz
Oscar 16 23 May 15:01:58 15:06:25 28° 266° (W) 15:10:55 437.025 USB, Beacon 2401.1428
AO-27 23 May 15:12:40 15:17:11 30° 265° (W) 15:21:45 436.795 MHz FM
AO-7 23 May 15:13:20 15:19:59 28° 48° (NE) 15:26:40 29.400 - 29.500 MHz
PCSat 23 May 15:17:31 15:22:22 31° 40° (NE) 15:27:10 145.825 MHz
TMSAT-1 23 May 15:18:39 15:23:24 35° 65° (ENE) 15:28:11 436.925 FM
ITAMSAT 1 23 May 15:19:20 15:23:42 27° 266° (W) 15:28:06 435.822 SSB
Gurwin Techsat 1B 23 May 15:40:18 15:45:35 73° 72° (ENE) 15:50:55 435.225 FM
UOSAT-12 23 May 15:49:50 15:51:16 11° 352° (N) 15:52:41 437.025 FM, 437.400 FM
Sapphire 23 May 15:50:26 15:55:41 46° 47° (NE) 16:00:54 437.095 MHz 1200 baud AX-25 AFSK
Uosat F 23 May 15:51:33 15:56:33 74° 256° (WSW) 16:01:35 435.120 FM
RS-15 23 May 15:57:34 16:08:01 37° 108° (ESE) 16:18:05 29.354 - 29.394 USB, Beacon 29.352 USB
AO-Echo 23 May 15:59:14 16:03:27 30° 265° (W) 16:07:38 ?
Uribyol 2 23 May 16:03:19 16:05:10 12° 275° (W) 16:07:01 436.500 FM
SO-50 23 May 16:14:45 16:18:52 31° 37° (NE) 16:22:55 436.795 FM
Saudisat 1A 23 May 16:18:58 16:19:51 11° 253° (WSW) 16:20:43 436.775 MHz
TMSAT-1 23 May 16:58:24 17:03:18 38° 263° (W) 17:08:16 436.925 FM
PCSat 23 May 17:00:48 17:06:09 60° 241° (WSW) 17:11:28 145.825 MHz
AO-7 23 May 17:03:34 17:11:53 88° 250° (WSW) 17:20:17 29.400 - 29.500 MHz
Gurwin Techsat 1B 23 May 17:22:37 17:26:09 18° 271° (W) 17:29:43 435.225 FM
UOSAT-12 23 May 17:31:12 17:33:27 13° 17° (NNE) 17:35:42 437.025 FM, 437.400 FM
Sapphire 23 May 17:34:07 17:39:02 36° 247° (WSW) 17:43:55 437.095 MHz 1200 baud AX-25 AFSK
Uosat F 23 May 17:35:37 17:36:15 10° 275° (W) 17:36:53 435.120 FM
SO-50 23 May 17:55:17 17:59:42 49° 238° (WSW) 18:04:02 436.795 FM
JAS-1B 23 May 18:00:33 18:06:40 23° 53° (NE) 18:12:07 435.800 - 435.900 CW/SSB
RS-15 23 May 18:07:34 18:19:35 79° 311° (NW) 18:31:04 29.354 - 29.394 USB, Beacon 29.352 USB
Hamsat 23 May 18:27:40 18:31:13 27° 66° (ENE) 18:34:49 145.90 MHz
STRAND 1 23 May 18:54:44 18:59:09 28° 94° (E) 19:03:32 ?
AO-7 23 May 18:59:48 19:05:50 22° 271° (W) 19:11:56 29.400 - 29.500 MHz
UOSAT-12 23 May 19:10:41 19:14:56 36° 40° (NE) 19:19:11 437.025 FM, 437.400 FM
JAS-2 23 May 19:40:52 19:45:15 16° 46° (NE) 19:49:35 435.800 - 435.900 CW/SSB, 435.910 FM
JAS-1B 23 May 19:47:25 19:56:26 81° 72° (ENE) 20:04:01 435.800 - 435.900 CW/SSB
HO-68 23 May 19:57:30 20:03:04 26° 52° (NE) 20:08:38 435.675 MHz FM
Hamsat 23 May 20:03:21 20:07:12 34° 264° (W) 20:11:07 145.90 MHz
SO-67 23 May 20:06:45 20:10:19 81° 257° (WSW) 20:13:55 435.3500 MHz FM

Developed and maintained by Chris Peat, Heavens-Above GmbH. Please read the updated FAQ before sending e-mail. Imprint. DLR
